Location: Arrien
(43.3167°N, 0.1500°W)
Time: 22:41:57
(UTC+00:00)

Meteor 1-24 Rocket - Pass Details

Date: 15 October 2021
Orbit: 790 x 927 km, 81.3° (Epoch: 03 December)

Event Time Altitude Azimuth Distance (km) Brightness Sun altitude
Rises 17:51:25 0° 347° (NNW) 3,421 7.0 -6.9°
Reaches altitude 10° 17:53:49 10° 345° (NNW) 2,501 6.3 -7.4°
Maximum altitude 17:59:28 68° 264° (W) 947 4.3 -8.4°
Drops below altitude 10° 18:05:17 10° 182° (S) 2,572 6.3 -9.5°
Sets 18:07:46 0° 180° (S) 3,524 7.0 -9.9°
